Key West, FL

3:16 PM EDT on July 28, 2016 (GMT -0400)
Key West Naval Air Station | | Change Station

Elev 7 ft 24.58 °N, 81.69 °W | Updated 23 minutes ago

Mostly Cloudy
Mostly Cloudy
88 °F
Feels Like 101 °F
N
15
Wind Variable Wind from ESE

Today
High -- | Low -- °F
--% Chance of Precip.
Yesterday
High -- | Low -- °F
Precip. -- in
Pressure 30.01 in
Visibility 10.0 miles
Clouds Scattered Clouds 1900 ft
Mostly Cloudy 25000 ft
Heat Index 101 °F
Dew Point 78 °F
Humidity 72%
Rainfall 1.29 in
Snow Depth Not available.
6:53 AM 8:12 PM
Waning Crescent, 29% visible
METAR KNQX 281853Z 11013KT 10SM SCT019 BKN250 31/26 A3002 RMK AO2 SLP163 T2 SET T03110256 $
Pressure 30.01 in
Visibility 10.0 miles
Clouds Scattered Clouds 1900 ft
Mostly Cloudy 25000 ft
Heat Index 101 °F
Dew Point 78 °F
Humidity 72%
Rainfall 1.29 in
Snow Depth Not available.
6:53 AM 8:12 PM
Waning Crescent, 29% visible
METAR KNQX 281853Z 11013KT 10SM SCT019 BKN250 31/26 A3002 RMK AO2 SLP163 T2 SET T03110256 $

10-Day Weather Forecast

Almanac

Astronomy

Jul. 28, 2016 Rise Set
Actual Time
Civil Twilight
Nautical Twilight
Astronomical Twilight
Moon
Length of Visible Light
Length of Day
Tomorrow will be .
, % of the Moon is Illuminated

Today's Extremes

State Highs State Lows

Community

WunderPhotos

Upload Photos

1,928,188 photos uploaded!

WunderBlog® & News

Nearby

Air Quality

  Air Quality AQ Index Pollutant
Not available.

Snow Depth

Station Depth Elevation

Earthquake Activity

City Distance Mag. Time & Date
Minimum magnitude displayed is 2.5.

Coastal Water Temperatures

Place Temperature

Stations

Nearby Weather Stations

Station Location Temp. Windchill Dew Point Humidity Wind Precip. Elev Updated Type
                   

Watches & Warnings

There are currently no watches in effect.